Weather History for La Junta, CO

Change the Weather History Date:

Friday, April 4, 2014

  Actual Average Record
Temperature  
Mean Temperature 45 °F 49 °F  
Max Temperature 59 °F 65 °F 86 °F (1967)
Min Temperature 30 °F 34 °F 10 °F (1945)
Degree Days  
Heating Degree Days 20 16  
Month to date heating degree days 74 65  
Since 1 July heating degree days 4797 4813  
Cooling Degree Days 0 0  
Month to date cooling degree days 0 0  
Year to date cooling degree days 0 1  
Moisture  
Dew Point 29 °F    
Average Humidity 59    
Maximum Humidity 89    
Minimum Humidity 28    
Precipitation  
Precipitation 0.00 in 0.03 in 0.41 in (1964)
Month to date precipitation 0.34 0.12  
Year to date precipitation 1.08 1.58  
Sea Level Pressure  
Sea Level Pressure 30.03 in    
Wind  
Wind Speed 8 mph (SSW)    
Max Wind Speed 17 mph    
Max Gust Speed 18 mph    
Visibility 10 miles    
Events      
T = Trace of Precipitation, MM = Missing Value Source: NWS Daily Summary

Daily Weather History Graph

Daily Weather History Graph

Search for Another Location

Airport:

Trip Planner

Search our weather history database for the weather conditions in past years. The results will help you decide how hot, cold, wet, or windy it might be!

Date:

Astronomy

Apr. 04, 2014 Rise Set
Actual Time 6:34 AM MDT 7:19 PM MDT
Civil Twilight 6:07 AM MDT 7:46 PM MDT
Nautical Twilight 5:36 AM MDT 8:18 PM MDT
Astronomical Twilight 5:04 AM MDT 8:50 PM MDT
Moon 9:56 AM MDT (4/4) No Moon Set
Length of Visible Light 13h 38m
Length of Day
12h 45m
Waxing Crescent, 26% of the Moon is Illuminated
Apr 4
Waxing Crescent
Apr 7
First Quarter
Apr 15
Full
Apr 22
Last Quarter
Apr 29
New

Hourly Weather History & Observations

Time (MDT) Temp. Windchill Dew Point Humidity Pressure Visibility Wind Dir Wind Speed Gust Speed Precip Events Conditions
12:53 AM 34.0 °F 26.0 °F 30.0 °F 85% 30.15 in 10.0 mi WNW 10.4 mph - N/A   Clear
1:53 AM 34.0 °F 26.0 °F 30.0 °F 85% 30.14 in 10.0 mi WNW 10.4 mph - N/A   Clear
2:53 AM 34.0 °F 28.8 °F 30.0 °F 85% 30.12 in 10.0 mi NW 5.8 mph - N/A   Clear
3:53 AM 32.0 °F 25.6 °F 28.9 °F 88% 30.12 in 10.0 mi SW 6.9 mph - N/A   Clear
4:53 AM 33.1 °F 25.5 °F 28.0 °F 82% 30.11 in 10.0 mi WSW 9.2 mph - N/A   Clear
5:53 AM 30.9 °F 21.7 °F 27.0 °F 85% 30.12 in 10.0 mi WSW 11.5 mph - N/A   Clear
6:53 AM 30.9 °F 21.7 °F 27.0 °F 85% 30.14 in 10.0 mi WSW 11.5 mph - N/A   Clear
7:53 AM 32.0 °F 23.6 °F 27.0 °F 82% 30.15 in 10.0 mi WSW 10.4 mph - N/A   Clear
8:53 AM 35.1 °F 28.6 °F 28.9 °F 78% 30.14 in 10.0 mi SW 8.1 mph - N/A   Clear
9:53 AM 39.0 °F 36.8 °F 30.9 °F 73% 30.14 in 10.0 mi NW 3.5 mph - N/A   Clear
10:53 AM 44.1 °F 40.1 °F 32.0 °F 63% 30.13 in 10.0 mi SW 6.9 mph - N/A   Clear
11:53 AM 46.9 °F - 34.0 °F 61% 30.10 in 10.0 mi Variable 6.9 mph - N/A   Clear
12:53 PM 50.0 °F - 33.1 °F 52% 30.06 in 10.0 mi South 6.9 mph - N/A   Clear
1:53 PM 54.0 °F - 28.0 °F 37% 30.01 in 10.0 mi SE 6.9 mph - N/A   Clear
2:53 PM 55.9 °F - 27.0 °F 33% 29.96 in 10.0 mi South 10.4 mph 16.1 mph N/A   Clear
3:53 PM 55.9 °F - 26.1 °F 32% 29.94 in 10.0 mi ESE 6.9 mph - N/A   Clear
4:53 PM 57.0 °F - 25.0 °F 29% 29.90 in 10.0 mi ESE 3.5 mph - N/A   Clear
5:53 PM 57.0 °F - 25.0 °F 29% 29.89 in 10.0 mi ENE 8.1 mph - N/A   Clear
6:53 PM 55.0 °F - 30.9 °F 40% 29.89 in 10.0 mi NE 8.1 mph - N/A   Partly Cloudy
7:53 PM 51.1 °F - 32.0 °F 48% 29.89 in 10.0 mi East 8.1 mph - N/A   Overcast
8:53 PM 48.9 °F - 32.0 °F 52% 29.91 in 10.0 mi ENE 6.9 mph - N/A   Clear
9:53 PM 46.9 °F - 30.9 °F 54% 29.91 in 10.0 mi East 6.9 mph - N/A   Clear
10:53 PM 46.0 °F 43.9 °F 30.0 °F 54% 29.88 in 10.0 mi SE 4.6 mph - N/A   Clear
11:53 PM 44.1 °F 39.0 °F 28.0 °F 53% 29.87 in 10.0 mi SW 9.2 mph - N/A   Clear